This is the latest recevied weather packets stored in our database for station/object DM8MH-13. If no packets are shown the sender has not sent any weather packets the latest 10 day(s).
| Time | Temp. | Humidity | Pressure | Rain* | Wind** | Luminosity | Snow |
|---|---|---|---|---|---|---|---|
| 1788539470 | 26.67° C | 61% | 1008.1 hPa | 0 mm | - | 49 W/m² | - |
| 1788538871 | 27.22° C | 60% | 1008.1 hPa | 0 mm | - | 67 W/m² | - |
| 1788538271 | 27.22° C | 59% | 1008.2 hPa | 0 mm | - | 120 W/m² | - |
| 1788537671 | 27.22° C | 58% | 1008.2 hPa | 0 mm | - | 305 W/m² | - |
| 1788537071 | 27.22° C | 59% | 1008.2 hPa | 0 mm | - | 198 W/m² | - |
| 1788536471 | 27.22° C | 60% | 1008.5 hPa | 0 mm | - | 169 W/m² | - |
| 1788535871 | 26.67° C | 60% | 1008.5 hPa | 0 mm | - | 81 W/m² | - |
| 1788535272 | 26.67° C | 61% | 1008.7 hPa | 0 mm | - | 127 W/m² | - |
| 1788534670 | 26.67° C | 62% | 1008.6 hPa | 0 mm | - | 122 W/m² | - |
| 1788534070 | 26.67° C | 62% | 1008.6 hPa | 0 mm | - | 174 W/m² | - |
| 1788533471 | 26.67° C | 62% | 1008.5 hPa | 0 mm | - | 62 W/m² | - |
| 1788532871 | 27.22° C | 62% | 1008.5 hPa | 0 mm | - | 138 W/m² | - |
| 1788532272 | 27.22° C | 61% | 1008.5 hPa | 0 mm | - | 116 W/m² | - |
| 1788531672 | 27.22° C | 60% | 1008.3 hPa | 0 mm | - | 154 W/m² | - |
| 1788531070 | 27.22° C | 60% | 1008.3 hPa | 0 mm | - | 146 W/m² | - |
| 1788530471 | 27.78° C | 60% | 1008.2 hPa | 0 mm | - | 187 W/m² | - |
| 1788529870 | 27.22° C | 60% | 1008.2 hPa | 0 mm | - | 295 W/m² | - |
| 1788529270 | 26.67° C | 61% | 1008.2 hPa | 0 mm | - | 172 W/m² | - |
| 1788528670 | 26.67° C | 61% | 1008.2 hPa | 0 mm | - | 150 W/m² | - |
| 1788528074 | 26.67° C | 62% | 1008.3 hPa | 0 mm | - | 177 W/m² | - |
| 1788527471 | 26.67° C | 63% | 1008.5 hPa | 0 mm | - | 167 W/m² | - |
| 1788526871 | 26.67° C | 64% | 1008.7 hPa | 0 mm | - | 133 W/m² | - |
| 1788526271 | 26.11° C | 65% | 1008.6 hPa | 0 mm | - | 190 W/m² | - |
| 1788525671 | 26.11° C | 65% | 1008.7 hPa | 0 mm | - | 255 W/m² | - |
| 1788525072 | 26.11° C | 65% | 1008.9 hPa | 0 mm | - | 502 W/m² | - |
* Rain latest hour (hover to see other rain measurements)
** Current wind speed in m/s (hover to see current wind gust speed)